Location: Bernay
(48.6766°N, 2.9386°E)
Time: 18:14:13
(UTC+00:00)

Resurs 01 Rocket - Pass Details

Date: 12 January 2026
Orbit: 628 x 635 km, 97.7° (Epoch: 16 February)

Event Time Altitude Azimuth Distance (km) Brightness Sun altitude
Rises 18:47:06 0° 168° (SSE) 2,903 4.9 -24.2°
Enters shadow 18:47:17 - 168° (SSE) 2,825 4.9 -24.2°
Exits shadow 18:53:18 72° 205° (SSW) 664 1.6 -25.2°
Maximum altitude 18:53:39 79° 257° (WSW) 646 1.6 -25.3°
Drops below altitude 10° 18:58:02 10° 344° (NNW) 2,017 4.3 -26.0°
Sets 19:00:15 0° 346° (NNW) 2,929 5.2 -26.4°
